This is the latest recevied weather packets stored in our database for station/object DO7ZT-10. If no packets are shown the sender has not sent any weather packets the latest 10 day(s).
| Time | Temp. | Humidity | Pressure | Rain* | Wind** | Luminosity | Snow |
|---|---|---|---|---|---|---|---|
| 1787906807 | 22.78° C | 53% | 1014.9 hPa | - | - | - | - |
| 1787905907 | 22.22° C | 50% | 1014.3 hPa | - | - | - | - |
| 1787905007 | 22.22° C | 50% | 1012.6 hPa | - | - | - | - |
| 1787904107 | 22.22° C | 49% | 1012.9 hPa | - | - | - | - |
| 1787903253 | 22.22° C | 51% | 1013.3 hPa | - | - | - | - |
| 1787902307 | 22.22° C | 51% | 1013.4 hPa | - | - | - | - |
| 1787901407 | 21.67° C | 53% | 1013.8 hPa | - | - | - | - |
| 1787900507 | 21.67° C | 52% | 1014.3 hPa | - | - | - | - |
| 1787899607 | 21.67° C | 52% | 1014.4 hPa | - | - | - | - |
| 1787898707 | 21.67° C | 54% | 1014.9 hPa | - | - | - | - |
| 1787897807 | 21.67° C | 54% | 1014.5 hPa | - | - | - | - |
| 1787896906 | 21.11° C | 55% | 1014.2 hPa | - | - | - | - |
| 1787896006 | 20.56° C | 56% | 1013.6 hPa | - | - | - | - |
| 1787895106 | 20° C | 58% | 1013.6 hPa | - | - | - | - |
| 1787894206 | 20° C | 58% | 1013.7 hPa | - | - | - | - |
| 1787893306 | 19.44° C | 60% | 1013.7 hPa | - | - | - | - |
| 1787892406 | 18.89° C | 60% | 1013.8 hPa | - | - | - | - |
| 1787891506 | 18.89° C | 61% | 1013.9 hPa | - | - | - | - |
| 1787890606 | 18.33° C | 62% | 1014.1 hPa | - | - | - | - |
| 1787889706 | 17.22° C | 65% | 1014.2 hPa | - | - | - | - |
| 1787888806 | 17.22° C | 67% | 1014.4 hPa | - | - | - | - |
| 1787887906 | 16.67° C | 67% | 1014.5 hPa | - | - | - | - |
| 1787887006 | 16.67° C | 68% | 1014.7 hPa | - | - | - | - |
| 1787886106 | 16.67° C | 67% | 1014.9 hPa | - | - | - | - |
| 1787885205 | 16.11° C | 68% | 1014.7 hPa | - | - | - | - |
* Rain since midnight (hover to see other rain measurements)
** Current wind speed in m/s (hover to see current wind gust speed)